Lid_Strength_Index
1 1 1 1 1 1 3 3 3 5 6 6 6 5 5 6 7 7 8 9 9 9
1 1 1 1 1 1 2 5 7 7 8 7 7 8 7 8 9 9 9 9 9 10
1 1 1 1 1 2 4 8 9 10 9 9 9 9 8 9 9 10 10 10 10 10
1 1 1 2 3 4 7 10 11 11 10 10 9 10 9 10 10 10 11 11 11 11
1 3 3 5 6 8 9 10 12 12 12 11 11 11 10 11 11 11 11 11 11 11
2 5 6 7 9 10 12 12 13 13 12 13 11 13 11 11 11 11 11 11 11 11
5 4 5 7 9 10 11 13 13 13 13 12 13 13 11 11 12 11 11 11 11 11
6 6 7 8 10 11 11 11 13 13 14 13 13 12 12 12 12 12 12 12 12 12
7 9 11 12 13 13 13 13 15 15 14 14 14 12 12 12 12 12 12 13 13 13
12 12 12 12 13 14 14 14 14 15 14 14 14 12 11 12 13 13 12 13 14 14
13 14 14 15 15 15 14 14 16 15 15 14 14 11 11 12 13 13 14 14 14 14
13 14 14 14 15 15 15 15 15 15 14 14 13 11 11 13 14 14 14 14 14 14
13 14 14 14 14 14 14 15 16 15 14 14 13 12 12 13 14 14 15 14 14 14
14 14 13 12 13 14 14 15 15 15 14 14 14 12 11 12 14 14 15 15 15 14